Location: Bretagne
(43.8474°N, 0.4650°W)
Time: 08:49:31
(UTC+00:00)

Cosmos 2218 Rocket - Pass Details

Date: 15 January 2026
Orbit: 955 x 1005 km, 82.9° (Epoch: 17 February)

Event Time Altitude Azimuth Distance (km) Brightness Sun altitude
Rises 17:19:18 0° 356° (N) 3,744 6.9 -5.6°
Reaches altitude 10° 17:21:56 10° 1° (N) 2,790 6.2 -6.0°
Maximum altitude 17:28:11 52° 77° (ENE) 1,235 4.2 -7.0°
Drops below altitude 10° 17:34:21 10° 153° (SSE) 2,760 6.3 -8.1°
Sets 17:36:56 0° 158° (SSE) 3,699 7.0 -8.5°
